Regional Weather Roundup
Issued by NWS

Home | Current Version | Previous Version | Graphics & Text | Print | Product List | Glossary On
Versions: 1 2 3 4 5 6 7 8 9 10 11 12 13 14 15 16 17 18 19 20 21 22 23 24 25 26 27 28 29 30 31 32 33 34 35 36 37 38 39 40 41 42 43 44 45 46 47 48 49 50
000
ASUS43 KLMK 180202
RWRKY
KENTUCKY REGIONAL WEATHER ROUNDUP
NATIONAL WEATHER SERVICE LOUISVILLE KY
900 PM EST WED JAN 17 2018

NOTE "FAIR" INDICATES FEW OR NO CLOUDS BELOW 12,000 FEET
WITH NO SIGNIFICANT WEATHER AND/OR OBSTRUCTIONS TO VISIBILITY.

KYZ001>023-026-027-061>063-070>075-180300-
WESTERN AND SOUTH CENTRAL KENTUCKY

CITY           SKY/WX    TMP DP  RH WIND       PRES   REMARKS
PADUCAH        FAIR       9   3  77 SW6       30.60S WCI  -1
HENDERSON      FAIR       2  -1  88 S3        30.59F
OWENSBORO      FAIR       5  -1  76 CALM      30.59F
HOPKINSVILLE   FAIR       9   5  85 W3        30.58F
BOWLING GREEN  FAIR      11   6  81 SW5       30.59F WCI   3
GLASGOW        NOT AVBL
$$

KYZ024-025-028>034-038-045-046-053-180300-
NORTH CENTRAL KENTUCKY

CITY           SKY/WX    TMP DP  RH WIND       PRES   REMARKS
LOUISVILLE/SDF FAIR      16   8  71 W8        30.55S WCI   5
LOUISVILLE/LOU FAIR      15   9  76 SW6       30.55F WCI   6
FORT KNOX      FAIR      10   6  82 SW5       30.52S WCI   2
$$

KYZ035>037-039>044-047>052-055>060-089>105-180300-
NORTHEAST KENTUCKY

CITY           SKY/WX    TMP DP  RH WIND       PRES   REMARKS
LEXINGTON      FAIR       8   3  80 SW6       30.51F WCI  -2
COVINGTON      FAIR      14  10  84 SW8       30.46F WCI   3
FRANKFORT      FAIR       7   2  80 SW5       30.51F WCI  -2
$$

KYZ054-064>069-076>088-106>120-180300-
SOUTHEAST KENTUCKY

CITY           SKY/WX    TMP DP  RH WIND       PRES   REMARKS
JACKSON        FAIR       9   4  80 SW5       30.47S WCI   1
LONDON         FAIR       7   4  87 CALM      30.50S
SOMERSET       NOT AVBL
MIDDLESBORO    CLOUDY    14   7  75 CALM      30.52S
MONTICELLO     FLURRIES  13   8  81 NW3       30.56S
$$





USA.gov is the U.S. government's official web portal to all federal, state and local government web resources and services.